Weather in Novomoskovsk

Ukraine / Dnipropetrovsk Region     48°38′16″N   35°13′43″E
temp.,
°C
wind,
m/s
gust,
m/s
humid.,
%
clouds,
%
prec.,
mm/h
press.,
hPa
HPBL,
m
13 april, tue
tue1300:00+11s2474100 0.0 1021127
03:00+10s2483100 0.0 1022126
06:00+9sse1284100 0.0 102297
09:00+9sse2381100 0.0 1022187
12:00+11s3368100 0.0 1021597
15:00+12sse2363100 0.0 1021657
18:00+11sse347296 0.0 1020234
21:00+10se3776100 0.0 1021236
14 april, wed
wed1400:00+10se358294 0.0 1020142
03:00+7sse349144 0.0 101987
06:00+6se3494100 0.0 101963
09:00+11sse3474100 0.0 1018471
12:00+14sse3456100 0.0 10171309
15:00+15s3450100 0.1 10161690
18:00+15ese235192 0.0 1015950
21:00+12s236195 0.0 101546
15 april, thu
thu1500:00+10s236990 0.0 101562
03:00+7sse348048 0.0 101567
06:00+7se3686100 0.0 1014128
09:00+9se4680100 0.3 1014305
12:00+14s575682 0.1 10131343
15:00+13s6766100 0.4 10131051
18:00+10sse469099 0.7 1013390
21:00
16 april, fri
fri1600:00+8ssw4883100 0.1 1013525
03:00+7s378646 0.1 1013304
06:00+5s489240 0.0 1014359
09:00+7s5785100 0.1 1014997
12:00+9s6867100 0.2 10141334
15:00+10s6864100 0.7 10141201
18:00+10ssw566197 0.4 10151093
21:00+8wsw227067 1.1 101711
17 april, sat
sat1700:00+5wnw118566 0.0 101710
03:00+6e1184100 0.0 101813
06:00+5s3584100 0.0 1018181
09:00+7sse3679100 0.0 1019520
12:00+9s347195 0.0 1020728
15:00+11ssw3362100 0.2 1020917
18:00+11wsw226384 0.0 1020734
21:00+8nw11757 0.0 102010